Home   Weather   Bastia   Past weeks

Flag for France Past Weather in Bastia, Corsica, France — Yesterday and Last 2 Weeks

Now
50 °F

Clear.


Feels Like: 46 °F
Forecast: 51 / 58 °F
Wind: 9 mph from Southwest

Location: Bastia Airport

Current Time: Dec 11, 2016 at 3:32:03 am

Latest Report: Dec 11, 2016 at 3:00 am


Visibility: 10 mi

Pressure: 30.24 "Hg

Humidity: 76%

Dew Point: 43 °F

Location of BastiaLocation

Past Weather in Bastia — Graph

°F

Bastia Temperature Yesterday

Maximum temperature yesterday: 66 °F (at 1:30 pm)
Minimum temperature yesterday: 46 °F (at 8:00 am)
Average temperature yesterday: 53 °F

High & Low Weather Summary for the Past Weeks

 TemperatureHumidityPressure
High66 °F (Dec 10, 1:30 pm)100% (Dec 4, 7:30 pm)30.57 "Hg (Dec 4, 7:30 pm)
Low34 °F (Nov 30, 5:30 am)34% (Dec 1, 1:30 pm)29.80 "Hg (Nov 28, 5:08 am)
Average51 °F76%30.24 "Hg
* Reported Nov 26 2:00 am — Dec 11 2:00 am, Bastia, Weather by CustomWeather, © 2016

Note: Actual official high and low records may vary slightly from our data, if they occured in-between our weather recording intervals... More about our weather records

Advertising

Bastia Weather History for the Previous 24 Hours

Scroll right to see more
 ConditionsComfort  
Time TempWeatherWind HumidityBarometerVisibility
2:00 am
Sun, Dec 11
52 °FClear.10 mph72%30.27 "Hg10 mi
1:30 am52 °FClear.10 mph77%30.27 "Hg10 mi
1:00 am52 °FClear.9 mph77%30.27 "Hg10 mi
12:30 am50 °FClear.8 mph82%30.30 "Hg10 mi
12:00 am52 °FClear.7 mph77%30.30 "Hg10 mi
11:30 pm
Sat, Dec 10
50 °FClear.6 mph82%30.30 "Hg10 mi
11:00 pm50 °FPassing clouds.2 mph82%30.30 "HgN/A
10:30 pm52 °FPassing clouds.8 mph77%30.30 "HgN/A
10:00 pm52 °FPassing clouds.9 mph82%30.30 "HgN/A
9:30 pm50 °FPassing clouds.6 mph88%30.30 "HgN/A
9:00 pm48 °FPassing clouds.5 mph87%30.30 "HgN/A
8:30 pm48 °FPassing clouds.3 mph94%30.33 "HgN/A
8:00 pm50 °FPassing clouds.2 mph88%30.33 "HgN/A
7:30 pm50 °FPassing clouds.2 mph88%30.33 "HgN/A
7:00 pm50 °FPassing clouds.5 mph88%30.33 "HgN/A
6:30 pm54 °FPassing clouds.2 mph77%30.33 "HgN/A
6:13 pm55 °FPassing clouds.2 mph77%30.33 "HgN/A
5:30 pm57 °FPartly cloudy.2 mph72%30.33 "HgN/A
5:00 pm57 °FPartly cloudy.5 mph72%30.33 "HgN/A
4:30 pm59 °FBroken clouds.5 mph63%30.33 "HgN/A
4:00 pm61 °FBroken clouds.3 mph63%30.33 "HgN/A
3:30 pm61 °FBroken clouds.5 mph68%30.33 "HgN/A
3:00 pm61 °FBroken clouds.6 mph63%30.33 "HgN/A
2:30 pm64 °FBroken clouds.3 mph56%30.33 "HgN/A
2:00 pm66 °FScattered clouds.2 mph52%30.33 "HgN/A
1:30 pm66 °FScattered clouds.2 mph49%30.36 "HgN/A
1:00 pm63 °FScattered clouds.3 mph59%30.36 "HgN/A
12:30 pm61 °FScattered clouds.5 mph59%30.36 "HgN/A
12:00 pm59 °FScattered clouds.6 mph63%30.39 "HgN/A
11:30 am59 °FScattered clouds.7 mph63%30.39 "HgN/A
11:00 am57 °FScattered clouds.8 mph63%30.39 "HgN/A
10:30 am55 °FScattered clouds.7 mph67%30.39 "HgN/A
10:00 am54 °FScattered clouds.8 mph67%30.39 "HgN/A
9:30 am52 °FScattered clouds.10 mph67%30.39 "HgN/A
9:00 am50 °FScattered clouds.12 mph71%30.39 "HgN/A
8:30 am48 °FScattered clouds.8 mph71%30.39 "HgN/A
8:00 am46 °FScattered clouds.12 mph76%30.39 "HgN/A
7:30 am48 °FPassing clouds.No wind71%30.39 "HgN/A
7:00 am48 °FPassing clouds.14 mph71%30.39 "HgN/A
6:30 am48 °FPassing clouds.14 mph71%30.39 "HgN/A
6:00 am48 °FPassing clouds.14 mph71%30.39 "HgN/A
5:30 am48 °FPassing clouds.12 mph71%30.39 "HgN/A
5:00 am48 °FPassing clouds.12 mph76%30.39 "HgN/A
4:30 am48 °FPassing clouds.12 mph76%30.39 "HgN/A
4:00 am48 °FPassing clouds.10 mph76%30.42 "HgN/A
3:30 am48 °FPassing clouds.9 mph76%30.42 "HgN/A
3:18 am48 °FPassing clouds.10 mph76%30.42 "HgN/A
Weather by CustomWeather, © 2016

See weather overviewHow to use our weather pages